AMC-14

Last updated on Wed Oct 22 2025 00:02:46 GMT+0000 (Coordinated Universal Time)

1 32708U 08011A 25293.91442413 .00000110 00000+0 00000+0 0 9999 2 32708 23.6989 23.4045 0036923 337.9026 27.7553 1.00269416 65773
UTC large
Height (km)
Speed (km/s)
/
Latitude / Longitude
Inclination (degrees)
Orbital Period (minutes)
Azimuth
Elevation
Range (km)
Doppler Factor

Next 0 passes for location: London (51.5072 / 0.1276)

Sorry there are no passes over London.